N0AOL-13 Weather Reports


Display with metric or nautical units.
time (UTC)temp
F
wind
direction
speed
MPH
gust
MPH
rain 1hr
in
rain 24hr
in
rain mn
in
humidity
%
barometer
mb
20260504081531 47 245 1.0 4.0 0.00 0.25 0.00 70 1005.9
20260504044532 48 267 1.0 3.0 0.00 0.25 0.25 74 1007.2
20260504043026 47 255 0.0 2.0 0.00 0.25 0.25 76 1007.3
20260504041530 47 284 0.0 0.0 0.00 0.25 0.25 81 1007.5
20260504040028 47 284 0.0 0.0 0.00 0.25 0.25 83 1007.5
20260504034528 47 284 0.0 0.0 0.00 0.25 0.25 83 1007.6
20260504033027 48 284 1.0 1.0 0.00 0.25 0.25 83 1007.7
20260504031527 49 256 0.0 2.0 0.00 0.25 0.25 80 1007.7
20260504030036 49 257 0.0 1.0 0.00 0.25 0.25 78 1007.7
20260504024528 49 192 0.0 0.0 0.00 0.25 0.25 79 1007.8
20260504023028 50 192 0.0 0.0 0.00 0.25 0.25 78 1007.7
20260504021533 51 192 0.0 0.0 0.00 0.25 0.25 77 1007.8
20260504020026 51 192 0.0 0.0 0.00 0.25 0.25 76 1007.9
20260504014528 52 192 0.0 0.0 0.00 0.25 0.25 77 1008.0
20260504013028 53 192 0.0 0.0 0.00 0.25 0.25 73 1008.2
20260504011527 54 192 0.0 2.0 0.00 0.25 0.25 72 1008.6
20260504010026 55 196 0.0 2.0 0.00 0.25 0.25 69 1008.8
20260504004528 56 198 0.0 3.0 0.00 0.25 0.25 69 1009.0
20260504003026 58 218 1.0 2.0 0.00 0.25 0.25 65 1009.2
20260504001508 59 221 0.0 2.0 0.00 0.25 0.25 65 1009.4
20260504000007 59 227 0.0 3.0 0.00 0.25 0.25 65 1009.7
20260503234514 59 198 1.0 2.0 0.00 0.25 0.25 73 1010.0
20260503233008 58 209 0.0 2.0 0.00 0.25 0.25 74 1010.3
20260503231508 57 217 0.0 2.0 0.00 0.25 0.25 82 1010.6
20260503230012 54 220 0.0 2.0 0.10 0.25 0.25 84 1010.7
20260503224514 53 248 0.0 2.0 0.17 0.25 0.25 85 1010.7
20260503223012 51 294 1.0 8.0 0.19 0.25 0.25 88 1011.2
20260503221508 49 213 0.0 3.0 0.19 0.25 0.25 86 1011.6
20260503220029 51 285 4.0 8.0 0.10 0.15 0.15 79 1012.6
20260503214510 56 310 5.0 14.0 0.04 0.08 0.08 69 1012.6
20260503213013 58 286 1.0 2.0 0.02 0.06 0.06 70 1012.0
20260503211512 61 299 0.0 2.0 0.02 0.06 0.06 65 1011.4
20260503210012 62 343 0.0 2.0 0.01 0.05 0.05 57 1011.6
20260503204510 62 165 0.0 2.0 0.00 0.04 0.04 52 1012.1
20260503203020 63 69 1.0 5.0 0.00 0.04 0.04 47 1012.0
20260503201515 64 103 1.0 7.0 0.01 0.04 0.04 46 1012.4
20260503200028 64 83 3.0 6.0 0.01 0.04 0.04 46 1012.4
20260503194530 63 159 1.0 6.0 0.01 0.04 0.04 48 1012.6
20260503193034 60 286 1.0 3.0 0.01 0.04 0.04 63 1013.0
20260503191526 62 236 1.0 2.0 0.00 0.03 0.03 45 1013.3
20260503190031 64 227 1.0 3.0 0.00 0.03 0.03 42 1013.1
20260503184526 64 62 1.0 5.0 0.00 0.03 0.03 40 1013.2
20260503183042 65 81 1.0 6.0 0.00 0.03 0.03 40 1013.4
20260503181526 66 261 2.0 9.0 0.00 0.03 0.03 38 1013.6
20260503180031 64 94 1.0 4.0 0.00 0.03 0.03 43 1013.8
20260503174529 64 63 2.0 7.0 0.00 0.03 0.03 42 1013.9
20260503173029 64 88 4.0 9.0 0.00 0.03 0.03 41 1014.1
20260503171528 65 17 2.0 7.0 0.00 0.03 0.03 41 1014.3